| time (UTC) | temp C | wind direction | speed KPH | gust KPH | rain 1hr cm | rain 24hr cm | rain mn cm | humidity % | barometer mb |
| 20260504175126 | 26 | 348 | 1.6 | 6.4 | 0.00 | 0.00 | 0.00 | 26 | 1005.7 |
| 20260504174624 | 26 | 359 | 4.8 | 11.3 | 0.00 | 0.00 | 0.00 | 26 | 1005.7 |
| 20260504174120 | 26 | 343 | 3.2 | 6.4 | 0.00 | 0.00 | 0.00 | 26 | 1005.6 |
| 20260504173618 | 26 | 9 | 3.2 | 9.7 | 0.00 | 0.00 | 0.00 | 25 | 1005.5 |
| 20260504173115 | 26 | 7 | 6.4 | 9.7 | 0.00 | 0.00 | 0.00 | 24 | 1005.6 |
| 20260504172611 | 26 | 330 | 4.8 | 6.4 | 0.00 | 0.00 | 0.00 | 26 | 1005.7 |
| 20260504172108 | 26 | 357 | 3.2 | 11.3 | 0.00 | 0.00 | 0.00 | 25 | 1006.0 |
| 20260504171604 | 26 | 12 | 6.4 | 6.4 | 0.00 | 0.00 | 0.00 | 26 | 1005.7 |
| 20260504171102 | 25 | 357 | 4.8 | 4.8 | 0.00 | 0.00 | 0.00 | 27 | 1005.9 |
| 20260504170557 | 26 | 351 | 1.6 | 6.4 | 0.00 | 0.00 | 0.00 | 26 | 1005.9 |
| 20260504150941 | 23 | 352 | 1.6 | 3.2 | 0.00 | 0.00 | 0.00 | 38 | 1006.3 |
| 20260504150438 | 22 | 299 | 0.0 | 1.6 | 0.00 | 0.00 | 0.00 | 39 | 1006.3 |
| 20260504140904 | 20 | 355 | 0.0 | 1.6 | 0.00 | 0.00 | 0.00 | 43 | 1006.7 |
| 20260504140400 | 20 | 356 | 0.0 | 1.6 | 0.00 | 0.00 | 0.00 | 42 | 1006.7 |
| 20260504130324 | 12 | 348 | 0.0 | 0.0 | 0.00 | 0.00 | 0.00 | 58 | 1006.4 |
| 20260504120248 | 9 | 355 | 0.0 | 1.6 | 0.00 | 0.00 | 0.00 | 64 | 1006.3 |
| 20260504110715 | 10 | 356 | 1.6 | 1.6 | 0.00 | 0.00 | 0.00 | 64 | 1006.0 |
| 20260504110212 | 10 | 335 | 0.0 | 0.0 | 0.00 | 0.00 | 0.00 | 64 | 1006.1 |
| 20260504100136 | 10 | 322 | 0.0 | 1.6 | 0.00 | 0.00 | 0.00 | 63 | 1005.8 |
| 20260504081529 | 13 | 314 | 0.0 | 1.6 | 0.00 | 0.00 | 0.00 | 50 | 1005.9 |
| 20260504081025 | 13 | 264 | 0.0 | 1.6 | 0.00 | 0.00 | 0.00 | 50 | 1006.2 |
| 20260504080522 | 13 | 297 | 0.0 | 1.6 | 0.00 | 0.00 | 0.00 | 50 | 1006.1 |
| 20260504050334 | 15 | 355 | 0.0 | 1.6 | 0.00 | 0.00 | 0.00 | 46 | 1009.2 |
| 20260504045832 | 15 | 1 | 1.6 | 4.8 | 0.00 | 0.00 | 0.00 | 46 | 1009.3 |
| 20260504045326 | 15 | 42 | 1.6 | 3.2 | 0.00 | 0.00 | 0.00 | 45 | 1009.1 |
| 20260504044824 | 15 | 293 | 1.6 | 3.2 | 0.00 | 0.00 | 0.00 | 46 | 1009.4 |
| 20260504044321 | 15 | 268 | 3.2 | 3.2 | 0.00 | 0.00 | 0.00 | 46 | 1009.3 |
| 20260504043818 | 15 | 14 | 0.0 | 3.2 | 0.00 | 0.00 | 0.00 | 46 | 1009.7 |
| 20260504043315 | 16 | 85 | 3.2 | 4.8 | 0.00 | 0.00 | 0.00 | 46 | 1009.4 |
| 20260504042813 | 15 | 137 | 3.2 | 4.8 | 0.00 | 0.00 | 0.00 | 46 | 1009.4 |
| 20260504042309 | 15 | 63 | 1.6 | 4.8 | 0.00 | 0.00 | 0.00 | 46 | 1009.5 |
| 20260504041805 | 15 | 2 | 1.6 | 3.2 | 0.00 | 0.00 | 0.00 | 46 | 1009.7 |
| 20260504041301 | 16 | 73 | 3.2 | 6.4 | 0.00 | 0.00 | 0.00 | 46 | 1009.7 |
| 20260504040758 | 16 | 79 | 3.2 | 3.2 | 0.00 | 0.00 | 0.00 | 46 | 1009.7 |
| 20260504040255 | 16 | 78 | 4.8 | 4.8 | 0.00 | 0.00 | 0.00 | 45 | 1009.7 |
| 20260504035751 | 16 | 33 | 3.2 | 9.7 | 0.00 | 0.00 | 0.00 | 45 | 1009.8 |
| 20260504035248 | 16 | 58 | 1.6 | 3.2 | 0.00 | 0.00 | 0.00 | 45 | 1009.5 |
| 20260504034745 | 16 | 103 | 3.2 | 6.4 | 0.00 | 0.00 | 0.00 | 44 | 1009.5 |
| 20260504034243 | 16 | 88 | 3.2 | 4.8 | 0.00 | 0.00 | 0.00 | 44 | 1009.8 |
| 20260504033740 | 17 | 114 | 3.2 | 3.2 | 0.00 | 0.00 | 0.00 | 43 | 1009.7 |
| 20260504033238 | 17 | 90 | 3.2 | 4.8 | 0.00 | 0.00 | 0.00 | 43 | 1009.7 |
| 20260504032734 | 17 | 91 | 3.2 | 4.8 | 0.00 | 0.00 | 0.00 | 43 | 1009.7 |
| 20260504032231 | 17 | 92 | 3.2 | 4.8 | 0.00 | 0.00 | 0.00 | 42 | 1009.8 |
| 20260504031728 | 17 | 4 | 1.6 | 4.8 | 0.00 | 0.00 | 0.00 | 43 | 1009.5 |
| 20260504031226 | 17 | 13 | 1.6 | 1.6 | 0.00 | 0.00 | 0.00 | 43 | 1009.9 |
| 20260504030721 | 17 | 358 | 1.6 | 6.4 | 0.00 | 0.00 | 0.00 | 44 | 1009.9 |
| 20260504030219 | 17 | 57 | 3.2 | 6.4 | 0.00 | 0.00 | 0.00 | 42 | 1009.9 |
| 20260504025715 | 17 | 58 | 1.6 | 4.8 | 0.00 | 0.00 | 0.00 | 43 | 1009.5 |
| 20260504025212 | 17 | 7 | 0.0 | 3.2 | 0.00 | 0.00 | 0.00 | 43 | 1009.7 |
| 20260504024709 | 17 | 91 | 3.2 | 3.2 | 0.00 | 0.00 | 0.00 | 43 | 1009.9 |
| 20260504024205 | 17 | 13 | 1.6 | 3.2 | 0.00 | 0.00 | 0.00 | 42 | 1009.8 |
| 20260504023702 | 17 | 14 | 1.6 | 3.2 | 0.00 | 0.00 | 0.00 | 42 | 1009.9 |
| 20260504023158 | 17 | 359 | 1.6 | 3.2 | 0.00 | 0.00 | 0.00 | 42 | 1009.9 |
| 20260504022654 | 17 | 34 | 1.6 | 3.2 | 0.00 | 0.00 | 0.00 | 43 | 1010.0 |
| 20260504022150 | 17 | 6 | 0.0 | 1.6 | 0.00 | 0.00 | 0.00 | 43 | 1010.0 |
| 20260504021649 | 17 | 6 | 0.0 | 0.0 | 0.00 | 0.00 | 0.00 | 42 | 1009.9 |
| 20260504021145 | 18 | 6 | 0.0 | 1.6 | 0.00 | 0.00 | 0.00 | 42 | 1010.1 |
| 20260504020642 | 18 | 350 | 0.0 | 1.6 | 0.00 | 0.00 | 0.00 | 41 | 1010.1 |
| 20260504020138 | 18 | 12 | 0.0 | 0.0 | 0.00 | 0.00 | 0.00 | 41 | 1010.1 |
| 20260504015635 | 18 | 12 | 0.0 | 1.6 | 0.00 | 0.00 | 0.00 | 41 | 1009.9 |
| 20260504015131 | 18 | 354 | 0.0 | 1.6 | 0.00 | 0.00 | 0.00 | 41 | 1010.1 |
| 20260504014627 | 18 | 349 | 0.0 | 1.6 | 0.00 | 0.00 | 0.00 | 40 | 1010.0 |
| 20260504014124 | 18 | 10 | 0.0 | 1.6 | 0.00 | 0.00 | 0.00 | 40 | 1010.1 |
| 20260504013622 | 18 | 354 | 0.0 | 0.0 | 0.00 | 0.00 | 0.00 | 40 | 1009.9 |
| 20260504013119 | 19 | 354 | 0.0 | 0.0 | 0.00 | 0.00 | 0.00 | 39 | 1009.9 |
| 20260504012616 | 20 | 354 | 0.0 | 1.6 | 0.00 | 0.00 | 0.00 | 38 | 1010.0 |
| 20260504012114 | 20 | 354 | 0.0 | 0.0 | 0.00 | 0.00 | 0.00 | 39 | 1010.0 |
| 20260504011610 | 20 | 354 | 0.0 | 1.6 | 0.00 | 0.00 | 0.00 | 38 | 1009.8 |
| 20260504011107 | 20 | 352 | 0.0 | 1.6 | 0.00 | 0.00 | 0.00 | 37 | 1010.0 |
| 20260504010603 | 20 | 354 | 1.6 | 3.2 | 0.00 | 0.00 | 0.00 | 37 | 1009.9 |
| 20260504010059 | 20 | 4 | 0.0 | 1.6 | 0.00 | 0.00 | 0.00 | 37 | 1010.0 |
| 20260504005555 | 20 | 19 | 1.6 | 1.6 | 0.00 | 0.00 | 0.00 | 36 | 1010.1 |
| 20260504005053 | 21 | 351 | 0.0 | 1.6 | 0.00 | 0.00 | 0.00 | 37 | 1010.1 |
| 20260504004551 | 21 | 337 | 0.0 | 3.2 | 0.00 | 0.00 | 0.00 | 37 | 1010.2 |
| 20260504004048 | 21 | 8 | 1.6 | 1.6 | 0.00 | 0.00 | 0.00 | 35 | 1010.2 |
| 20260504003543 | 21 | 23 | 0.0 | 3.2 | 0.00 | 0.00 | 0.00 | 35 | 1010.3 |
| 20260504003040 | 21 | 67 | 3.2 | 3.2 | 0.00 | 0.00 | 0.00 | 35 | 1010.3 |
| 20260504002537 | 21 | 354 | 0.0 | 1.6 | 0.00 | 0.00 | 0.00 | 35 | 1010.4 |
| 20260504002035 | 21 | 350 | 0.0 | 1.6 | 0.00 | 0.00 | 0.00 | 35 | 1010.6 |
| 20260504001533 | 22 | 356 | 0.0 | 1.6 | 0.00 | 0.00 | 0.00 | 33 | 1010.7 |
| 20260504001028 | 22 | 346 | 0.0 | 1.6 | 0.00 | 0.00 | 0.00 | 34 | 1010.7 |
| 20260504000526 | 22 | 346 | 0.0 | 1.6 | 0.00 | 0.00 | 0.00 | 35 | 1010.6 |
| 20260504000023 | 22 | 4 | 1.6 | 3.2 | 0.00 | 0.00 | 0.00 | 35 | 1010.7 |
| 20260503235521 | 22 | 349 | 0.0 | 3.2 | 0.00 | 0.00 | 0.00 | 33 | 1010.8 |
| 20260503235018 | 22 | 15 | 1.6 | 3.2 | 0.00 | 0.00 | 0.00 | 32 | 1010.9 |
| 20260503234515 | 22 | 342 | 1.6 | 3.2 | 0.00 | 0.00 | 0.00 | 32 | 1010.9 |
| 20260503234014 | 22 | 329 | 0.0 | 3.2 | 0.00 | 0.00 | 0.00 | 31 | 1010.9 |
| 20260503233510 | 22 | 353 | 1.6 | 3.2 | 0.00 | 0.00 | 0.00 | 32 | 1011.2 |
| 20260503233006 | 22 | 359 | 1.6 | 3.2 | 0.00 | 0.00 | 0.00 | 31 | 1011.3 |
| 20260503232503 | 22 | 350 | 1.6 | 3.2 | 0.00 | 0.00 | 0.00 | 32 | 1011.2 |
| 20260503232000 | 22 | 353 | 1.6 | 1.6 | 0.00 | 0.00 | 0.00 | 32 | 1011.2 |
| 20260503231458 | 22 | 3 | 1.6 | 4.8 | 0.00 | 0.00 | 0.00 | 31 | 1011.0 |
| 20260503230954 | 22 | 349 | 0.0 | 4.8 | 0.00 | 0.00 | 0.00 | 33 | 1011.3 |
| 20260503230451 | 22 | 349 | 3.2 | 3.2 | 0.00 | 0.00 | 0.00 | 31 | 1011.2 |
| 20260503225949 | 23 | 339 | 1.6 | 3.2 | 0.00 | 0.00 | 0.00 | 33 | 1011.2 |
| 20260503225445 | 23 | 358 | 1.6 | 1.6 | 0.00 | 0.00 | 0.00 | 32 | 1011.4 |
| 20260503224941 | 23 | 118 | 1.6 | 3.2 | 0.00 | 0.00 | 0.00 | 30 | 1011.3 |
| 20260503224438 | 23 | 17 | 3.2 | 4.8 | 0.00 | 0.00 | 0.00 | 30 | 1011.5 |
| 20260503223936 | 23 | 11 | 1.6 | 3.2 | 0.00 | 0.00 | 0.00 | 32 | 1011.7 |
| 20260503223433 | 23 | 352 | 0.0 | 1.6 | 0.00 | 0.00 | 0.00 | 31 | 1011.5 |
| 20260503222928 | 24 | 336 | 1.6 | 1.6 | 0.00 | 0.00 | 0.00 | 31 | 1011.5 |
| 20260503222427 | 24 | 328 | 0.0 | 4.8 | 0.00 | 0.00 | 0.00 | 31 | 1011.6 |
| 20260503221925 | 24 | 356 | 1.6 | 3.2 | 0.00 | 0.00 | 0.00 | 32 | 1011.4 |
| 20260503221423 | 23 | 253 | 3.2 | 4.8 | 0.00 | 0.00 | 0.00 | 29 | 1011.6 |
| 20260503220920 | 25 | 346 | 1.6 | 3.2 | 0.00 | 0.00 | 0.00 | 32 | 1011.6 |
| 20260503220416 | 25 | 346 | 0.0 | 1.6 | 0.00 | 0.00 | 0.00 | 28 | 1011.6 |
| 20260503215914 | 25 | 323 | 1.6 | 3.2 | 0.00 | 0.00 | 0.00 | 31 | 1011.6 |
| 20260503215410 | 23 | 338 | 0.0 | 3.2 | 0.00 | 0.00 | 0.00 | 31 | 1011.9 |
| 20260503214908 | 23 | 343 | 3.2 | 4.8 | 0.00 | 0.00 | 0.00 | 30 | 1012.0 |
| 20260503214405 | 23 | 349 | 0.0 | 3.2 | 0.00 | 0.00 | 0.00 | 30 | 1011.9 |
| 20260503213902 | 23 | 6 | 1.6 | 3.2 | 0.00 | 0.00 | 0.00 | 30 | 1012.1 |
| 20260503213400 | 24 | 6 | 1.6 | 3.2 | 0.00 | 0.00 | 0.00 | 30 | 1012.2 |
| 20260503212856 | 24 | 347 | 1.6 | 4.8 | 0.00 | 0.00 | 0.00 | 29 | 1012.1 |
| 20260503212355 | 24 | 290 | 1.6 | 4.8 | 0.00 | 0.00 | 0.00 | 33 | 1012.1 |
| 20260503211851 | 24 | 346 | 1.6 | 3.2 | 0.00 | 0.00 | 0.00 | 31 | 1012.1 |
| 20260503211348 | 24 | 137 | 6.4 | 9.7 | 0.00 | 0.00 | 0.00 | 31 | 1012.3 |
| 20260503210843 | 24 | 307 | 1.6 | 3.2 | 0.00 | 0.00 | 0.00 | 31 | 1012.4 |
| 20260503210341 | 24 | 24 | 3.2 | 4.8 | 0.00 | 0.00 | 0.00 | 31 | 1012.3 |
| 20260503205836 | 24 | 336 | 3.2 | 3.2 | 0.00 | 0.00 | 0.00 | 32 | 1012.4 |
| 20260503205332 | 24 | 76 | 3.2 | 4.8 | 0.00 | 0.00 | 0.00 | 31 | 1012.7 |
| 20260503204829 | 24 | 350 | 1.6 | 4.8 | 0.00 | 0.00 | 0.00 | 29 | 1012.9 |
| 20260503204327 | 24 | 292 | 0.0 | 3.2 | 0.00 | 0.00 | 0.00 | 32 | 1012.7 |
| 20260503203824 | 24 | 356 | 4.8 | 11.3 | 0.00 | 0.00 | 0.00 | 31 | 1012.7 |
| 20260503203321 | 23 | 348 | 1.6 | 9.7 | 0.00 | 0.00 | 0.00 | 31 | 1012.7 |
| 20260503202818 | 23 | 30 | 6.4 | 6.4 | 0.00 | 0.00 | 0.00 | 30 | 1012.8 |
| 20260503202316 | 25 | 23 | 3.2 | 3.2 | 0.00 | 0.00 | 0.00 | 30 | 1012.7 |
| 20260503201814 | 25 | 342 | 3.2 | 3.2 | 0.00 | 0.00 | 0.00 | 30 | 1012.8 |
| 20260503201310 | 23 | 334 | 1.6 | 3.2 | 0.00 | 0.00 | 0.00 | 33 | 1012.9 |
| 20260503200808 | 24 | 316 | 0.0 | 12.9 | 0.00 | 0.00 | 0.00 | 35 | 1013.0 |
| 20260503200303 | 23 | 312 | 0.0 | 1.6 | 0.00 | 0.00 | 0.00 | 33 | 1013.0 |
| 20260503195801 | 23 | 3 | 1.6 | 3.2 | 0.00 | 0.00 | 0.00 | 31 | 1013.2 |
| 20260503195258 | 24 | 303 | 1.6 | 3.2 | 0.00 | 0.00 | 0.00 | 33 | 1013.3 |
| 20260503194755 | 24 | 31 | 1.6 | 4.8 | 0.00 | 0.00 | 0.00 | 33 | 1013.2 |
| 20260503194251 | 23 | 70 | 1.6 | 4.8 | 0.00 | 0.00 | 0.00 | 32 | 1013.3 |
| 20260503193747 | 23 | 135 | 4.8 | 12.9 | 0.00 | 0.00 | 0.00 | 32 | 1013.5 |
| 20260503193243 | 24 | 58 | 3.2 | 4.8 | 0.00 | 0.00 | 0.00 | 31 | 1013.4 |
| 20260503192739 | 24 | 8 | 3.2 | 6.4 | 0.00 | 0.00 | 0.00 | 31 | 1013.5 |
| 20260503192234 | 23 | 341 | 1.6 | 6.4 | 0.00 | 0.00 | 0.00 | 32 | 1013.5 |
| 20260503191731 | 23 | 314 | 3.2 | 4.8 | 0.00 | 0.00 | 0.00 | 31 | 1013.6 |
| 20260503191228 | 23 | 22 | 1.6 | 9.7 | 0.00 | 0.00 | 0.00 | 31 | 1013.7 |
| 20260503190725 | 23 | 350 | 1.6 | 4.8 | 0.00 | 0.00 | 0.00 | 32 | 1013.8 |
| 20260503190221 | 23 | 14 | 4.8 | 6.4 | 0.00 | 0.00 | 0.00 | 32 | 1013.7 |
| 20260503185719 | 23 | 341 | 0.0 | 9.7 | 0.00 | 0.00 | 0.00 | 35 | 1013.7 |
| 20260503185214 | 22 | 325 | 0.0 | 1.6 | 0.00 | 0.00 | 0.00 | 35 | 1013.7 |
| 20260503184709 | 22 | 1 | 3.2 | 6.4 | 0.00 | 0.00 | 0.00 | 31 | 1014.1 |
| 20260503184206 | 22 | 354 | 0.0 | 3.2 | 0.00 | 0.00 | 0.00 | 31 | 1013.8 |
| 20260503183702 | 22 | 10 | 1.6 | 9.7 | 0.00 | 0.00 | 0.00 | 33 | 1014.1 |
| 20260503183159 | 22 | 26 | 1.6 | 11.3 | 0.00 | 0.00 | 0.00 | 32 | 1014.1 |
| 20260503182657 | 23 | 25 | 4.8 | 11.3 | 0.00 | 0.00 | 0.00 | 32 | 1014.0 |
| 20260503182155 | 22 | 353 | 1.6 | 4.8 | 0.00 | 0.00 | 0.00 | 33 | 1014.0 |
| 20260503181652 | 22 | 17 | 3.2 | 11.3 | 0.00 | 0.00 | 0.00 | 32 | 1014.3 |
| 20260503181149 | 23 | 26 | 3.2 | 3.2 | 0.00 | 0.00 | 0.00 | 31 | 1014.4 |
| 20260503180646 | 23 | 5 | 3.2 | 6.4 | 0.00 | 0.00 | 0.00 | 32 | 1014.5 |
| 20260503180144 | 22 | 21 | 3.2 | 3.2 | 0.00 | 0.00 | 0.00 | 33 | 1014.6 |
| 20260503175641 | 22 | 28 | 4.8 | 4.8 | 0.00 | 0.00 | 0.00 | 32 | 1014.7 |